Zurück zum Katalog

STARLINK-37031

AktivKommunikationVLEO
NORAD 68172·PAYLOAD·🇺🇸 United States

Gestartet Mar 14, 2026 von Vandenberg Space Force Base

Loading…

Nächste Überflüge (nächste 24 Stunden)

TLE

AktuellSource: CelesTrak SupGP

Epoche: Sep 15, 2026, 04:19 UTC

1 68172C 26050F   26258.18034722 -.00019596  00000+0 -57899-3 0  2587
2 68172  53.1566 102.8235 0001313  85.1615  74.8203 15.34398746    12

Verfolge STARLINK-37031 in Echtzeit mit AllMySat

Download on the App Store